CW2293 Weather Reports


time (UTC)temp
C
wind
direction
speed
KPH
gust
KPH
rain 1hr
cm
rain 24hr
cm
rain mn
cm
humidity
%
barometer
mb
20240424005303 -17 196 3.2 9.7 0.00 0.00 0.00 2 886.4
20240424004302 -17 216 4.8 11.3 0.00 0.00 0.00 2 886.4
20240424003802 -17 195 3.2 12.9 0.00 0.00 0.00 2 886.4
20240424003303 -17 183 4.8 12.9 0.00 0.00 0.00 2 886.4
20240424002803 -17 186 3.2 14.5 0.00 0.00 0.00 2 886.4
20240424002303 -17 242 1.6 9.7 0.00 0.00 0.00 2 886.4
20240424001803 -17 281 3.2 16.1 0.00 0.00 0.00 2 886.4
20240424000803 -17 134 3.2 8.0 0.00 0.00 0.00 2 886.4
20240424000303 -17 222 1.6 9.7 0.00 0.00 0.00 2 886.4
20240423235803 -17 159 3.2 9.7 0.00 0.00 0.00 2 886.4
20240423235303 -17 204 3.2 11.3 0.00 0.00 0.00 2 886.4
20240423234302 -17 211 1.6 8.0 0.00 0.00 0.00 2 886.4
20240423233804 -17 222 4.8 11.3 0.00 0.00 0.00 2 886.4
20240423233303 -17 232 4.8 11.3 0.00 0.00 0.00 2 886.4
20240423232303 -17 193 4.8 12.9 0.00 0.00 0.00 2 886.4
20240423231803 -17 221 8.0 12.9 0.00 0.00 0.00 2 886.4
20240423231303 -17 246 8.0 19.3 0.00 0.00 0.00 2 886.4
20240423230803 -17 90 1.6 11.3 0.00 0.00 0.00 2 886.4
20240423230303 -17 189 1.6 8.0 0.00 0.00 0.00 2 886.4
20240423225803 -17 203 4.8 14.5 0.00 0.00 0.00 2 886.4
20240423224802 -17 68 6.4 12.9 0.00 0.00 0.00 2 886.4
20240423224303 -17 81 3.2 12.9 0.00 0.00 0.00 2 886.4
20240423223803 -17 228 8.0 12.9 0.00 0.00 0.00 2 886.4
20240423223304 -17 224 4.8 20.9 0.00 0.00 0.00 2 886.4
20240423222803 -17 242 8.0 25.7 0.00 0.00 0.00 2 886.4
20240423221803 -17 219 11.3 25.7 0.00 0.00 0.00 2 886.4
20240423221303 -17 182 9.7 24.1 0.00 0.00 0.00 2 886.4
20240423220803 -17 206 11.3 24.1 0.00 0.00 0.00 2 886.4
20240423220303 -17 203 4.8 22.5 0.00 0.00 0.00 2 886.4
20240423215804 -17 182 8.0 16.1 0.00 0.00 0.00 2 886.4
20240423215302 -17 220 8.0 22.5 0.00 0.00 0.00 2 886.4
20240423214804 -17 119 9.7 24.1 0.00 0.00 0.00 2 886.4
20240423214304 -17 194 4.8 20.9 0.00 0.00 0.00 2 886.4
20240423213803 -17 225 9.7 24.1 0.00 0.00 0.00 2 886.4
20240423213302 -17 205 8.0 20.9 0.00 0.00 0.00 2 886.4
20240423212803 -17 223 12.9 20.9 0.00 0.00 0.00 2 886.4
20240423212303 -17 196 6.4 19.3 0.00 0.00 0.00 2 886.4
20240423211303 -17 239 11.3 22.5 0.00 0.00 0.00 2 886.4
20240423210804 -17 209 9.7 19.3 0.00 0.00 0.00 2 886.4
20240423210303 -17 175 3.2 19.3 0.00 0.00 0.00 2 886.4
20240423205803 -17 220 9.7 20.9 0.00 0.00 0.00 2 886.4
20240423205303 -17 244 9.7 20.9 0.00 0.00 0.00 2 886.4
20240423204803 -17 209 8.0 24.1 0.00 0.00 0.00 2 886.4
20240423204303 -17 185 8.0 19.3 0.00 0.00 0.00 2 886.4
20240423203803 -17 186 9.7 16.1 0.00 0.00 0.00 2 886.4
20240423203303 -17 209 8.0 20.9 0.00 0.00 0.00 2 886.4
20240423202803 -17 214 11.3 24.1 0.00 0.00 0.00 2 886.4
20240423202303 -17 203 8.0 16.1 0.00 0.00 0.00 2 886.4
20240423201803 -17 145 4.8 12.9 0.00 0.00 0.00 2 886.4
20240423201304 -17 192 8.0 22.5 0.00 0.00 0.00 2 886.4
20240423200803 -17 181 11.3 29.0 0.00 0.00 0.00 2 886.4
20240423200303 -17 207 9.7 16.1 0.00 0.00 0.00 2 886.4
20240423195305 -17 248 4.8 14.5 0.00 0.00 0.00 2 886.4
20240423194803 -17 212 12.9 20.9 0.00 0.00 0.00 2 886.4
20240423194304 -17 219 9.7 24.1 0.00 0.00 0.00 2 886.4
20240423193803 -17 225 8.0 22.5 0.00 0.00 0.00 2 886.4
20240423192803 -17 200 4.8 12.9 0.00 0.00 0.00 2 886.4
20240423191803 -17 65 4.8 20.9 0.00 0.00 0.00 2 886.4
20240423191303 -17 178 8.0 12.9 0.00 0.00 0.00 2 886.4
20240423190803 -17 269 9.7 19.3 0.00 0.00 0.00 2 886.4
20240423190304 -17 188 9.7 19.3 0.00 0.00 0.00 2 886.4
20240423185803 -17 235 4.8 16.1 0.00 0.00 0.00 2 886.4
20240423185303 -17 225 8.0 20.9 0.00 0.00 0.00 2 886.4
20240423184803 -17 273 4.8 12.9 0.00 0.00 0.00 2 886.4
20240423184303 -17 199 11.3 22.5 0.00 0.00 0.00 2 886.4
20240423183804 -17 227 9.7 14.5 0.00 0.00 0.00 2 886.4
20240423183304 -17 253 9.7 16.1 0.00 0.00 0.00 2 886.4
20240423182803 -17 235 9.7 16.1 0.00 0.00 0.00 2 886.4
20240423182303 -17 106 4.8 16.1 0.00 0.00 0.00 2 886.4
20240423181804 -17 223 8.0 14.5 0.00 0.00 0.00 2 886.4
20240423181303 -17 357 3.2 11.3 0.00 0.00 0.00 2 886.4
20240423180804 -17 171 6.4 22.5 0.00 0.00 0.00 2 886.4
20240423180304 -17 247 8.0 19.3 0.00 0.00 0.00 2 886.4
20240423175802 -17 235 4.8 14.5 0.00 0.00 0.00 2 886.4
20240423175303 -17 253 4.8 22.5 0.00 0.00 0.00 2 886.4
20240423174803 -17 260 6.4 14.5 0.00 0.00 0.00 2 886.4
20240423174303 -17 254 8.0 20.9 0.00 0.00 0.00 2 886.4
20240423173803 -17 181 9.7 16.1 0.00 0.00 0.00 2 886.4
20240423172805 -17 262 6.4 20.9 0.00 0.00 0.00 2 886.4
20240423172303 -17 129 9.7 25.7 0.00 0.00 0.00 2 886.4
20240423171802 -17 271 11.3 20.9 0.00 0.00 0.00 2 886.4
20240423171303 -17 223 8.0 14.5 0.00 0.00 0.00 2 886.4
20240423170804 -17 290 4.8 16.1 0.00 0.00 0.00 2 886.4
20240423170303 -17 230 4.8 20.9 0.00 0.00 0.00 2 886.4
20240423165803 -17 202 8.0 19.3 0.00 0.00 0.00 2 886.4
20240423165303 -17 173 4.8 14.5 0.00 0.00 0.00 2 886.4
20240423164803 -17 82 8.0 19.3 0.00 0.00 0.00 2 886.4
20240423164302 -17 201 8.0 16.1 0.00 0.00 0.00 2 886.4
20240423163803 -17 230 4.8 19.3 0.00 0.00 0.00 2 886.4
20240423163303 -17 160 4.8 12.9 0.00 0.00 0.00 2 886.4
20240423162303 -17 148 6.4 12.9 0.00 0.00 0.00 2 886.4
20240423161804 -17 87 6.4 12.9 0.00 0.00 0.00 2 886.4
20240423160803 -17 86 4.8 12.9 0.00 0.00 0.00 2 886.4
20240423160303 -17 135 8.0 14.5 0.00 0.00 0.00 2 886.4
20240423155803 -17 206 4.8 11.3 0.00 0.00 0.00 2 886.4
20240423155303 -17 54 3.2 16.1 0.00 0.00 0.00 2 886.4
20240423154803 -17 138 8.0 14.5 0.00 0.00 0.00 2 886.4
20240423153804 -17 227 8.0 14.5 0.00 0.00 0.00 2 886.4
20240423153304 -17 249 9.7 14.5 0.00 0.00 0.00 2 886.4
20240423152804 -17 176 8.0 16.1 0.00 0.00 0.00 2 886.4
20240423152303 -17 222 9.7 20.9 0.00 0.00 0.00 2 886.4
20240423151804 -17 158 4.8 11.3 0.00 0.00 0.00 2 886.4
20240423150802 -17 226 8.0 11.3 0.00 0.00 0.00 2 886.4
20240423145802 -17 264 8.0 14.5 0.00 0.00 0.00 2 886.4
20240423145303 -17 253 9.7 19.3 0.00 0.00 0.00 2 886.4
20240423144803 -17 223 3.2 11.3 0.00 0.00 0.00 2 886.4
20240423144304 -17 236 8.0 14.5 0.00 0.00 0.00 2 886.4
20240423143302 -17 216 6.4 14.5 0.00 0.00 0.00 2 886.4
20240423142303 -17 68 3.2 9.7 0.00 0.00 0.00 2 886.4
20240423141803 -17 259 3.2 9.7 0.00 0.00 0.00 2 886.4
20240423141303 -17 231 6.4 12.9 0.00 0.00 0.00 2 886.4
20240423140802 -17 130 1.6 11.3 0.00 0.00 0.00 2 886.4
20240423140303 -17 237 8.0 14.5 0.00 0.00 0.00 2 886.4
20240423135803 -17 189 3.2 11.3 0.00 0.00 0.00 2 886.4
20240423135303 -17 139 6.4 14.5 0.00 0.00 0.00 2 886.4
20240423134802 -17 132 1.6 12.9 0.00 0.00 0.00 2 886.4
20240423134302 -17 287 3.2 11.3 0.00 0.00 0.00 2 886.4
20240423133303 -17 193 4.8 11.3 0.00 0.00 0.00 2 886.4
20240423132803 -17 279 6.4 11.3 0.00 0.00 0.00 2 886.4
20240423132303 -17 306 3.2 9.7 0.00 0.00 0.00 2 886.4
20240423131303 -17 283 4.8 8.0 0.00 0.00 0.00 2 886.4
20240423130803 -17 229 4.8 11.3 0.00 0.00 0.00 2 886.4
20240423130303 -17 138 3.2 9.7 0.00 0.00 0.00 2 886.4
20240423125803 -17 89 1.6 4.8 0.00 0.00 0.00 2 886.4
20240423125303 -17 209 3.2 8.0 0.00 0.00 0.00 2 886.4
20240423124803 -17 176 0.0 8.0 0.00 0.00 0.00 2 886.4
20240423124303 -17 212 1.6 9.7 0.00 0.00 0.00 2 886.4
20240423123303 -17 193 3.2 9.7 0.00 0.00 0.00 2 886.4
20240423122303 -17 250 4.8 12.9 0.00 0.00 0.00 2 886.4
20240423121803 -17 188 3.2 12.9 0.00 0.00 0.00 2 886.4
20240423120803 -17 228 3.2 9.7 0.00 0.00 0.00 2 886.4
20240423120302 -17 113 4.8 11.3 0.00 0.00 0.00 2 886.4
20240423115803 -17 214 4.8 11.3 0.00 0.00 0.00 2 886.4
20240423115304 -17 207 8.0 11.3 0.00 0.00 0.00 2 886.4
20240423114803 -17 242 4.8 11.3 0.00 0.00 0.00 2 886.4
20240423114302 -17 204 4.8 14.5 0.00 0.00 0.00 2 886.4
20240423113804 -17 143 0.0 0.0 0.00 0.00 0.00 2 886.4
20240423113303 -17 207 1.6 3.2 0.00 0.00 0.00 2 886.4
20240423112803 -17 323 0.0 0.0 0.00 0.00 0.00 2 886.4
20240423112303 -17 323 0.0 0.0 0.00 0.00 0.00 2 886.4
20240423111803 -17 323 0.0 0.0 0.00 0.00 0.00 2 886.4
20240423111304 -17 323 0.0 0.0 0.00 0.00 0.00 2 886.4
20240423110804 -17 323 0.0 0.0 0.00 0.00 0.00 2 886.4
20240423110303 -17 323 0.0 0.0 0.00 0.00 0.00 2 886.4
20240423105804 -17 323 0.0 0.0 0.00 0.00 0.00 2 886.4
20240423105303 -17 323 0.0 0.0 0.00 0.00 0.00 2 886.4
20240423104803 -17 323 0.0 0.0 0.00 0.00 0.00 2 886.4
20240423104303 -17 323 0.0 0.0 0.00 0.00 0.00 2 886.4
20240423103803 -17 323 0.0 0.0 0.00 0.00 0.00 2 886.4
20240423103304 -17 323 0.0 0.0 0.00 0.00 0.00 2 886.4
20240423102804 -17 323 0.0 0.0 0.00 0.00 0.00 2 886.4
20240423102304 -17 323 0.0 0.0 0.00 0.00 0.00 2 886.4
20240423101805 -17 323 0.0 0.0 0.00 0.00 0.00 2 886.4
20240423101305 -17 323 0.0 0.0 0.00 0.00 0.00 2 886.4
20240423100803 -17 323 1.6 1.6 0.00 0.00 0.00 2 886.4
20240423100303 -17 4 0.0 0.0 0.00 0.00 0.00 2 886.4
20240423095803 -17 4 0.0 0.0 0.00 0.00 0.00 2 886.4
20240423095303 -17 4 0.0 0.0 0.00 0.00 0.00 2 886.4
20240423094303 -17 4 0.0 0.0 0.00 0.00 0.00 2 886.4
20240423093803 -17 4 0.0 0.0 0.00 0.00 0.00 2 886.4
20240423093302 -17 4 0.0 0.0 0.00 0.00 0.00 2 886.4
20240423092803 -17 4 0.0 0.0 0.00 0.00 0.00 2 886.4
20240423092303 -17 4 0.0 0.0 0.00 0.00 0.00 2 886.4
20240423091803 -17 4 0.0 0.0 0.00 0.00 0.00 2 886.4
20240423090303 -17 4 0.0 0.0 0.00 0.00 0.00 2 886.4
20240423085803 -17 10 1.6 12.9 0.00 0.00 0.00 2 886.4
20240423084803 -17 260 0.0 0.0 0.00 0.00 0.00 2 886.4
20240423084303 -17 260 0.0 0.0 0.00 0.00 0.00 2 886.4
20240423083803 -17 260 0.0 0.0 0.00 0.00 0.00 2 886.4
20240423082804 -17 260 0.0 0.0 0.00 0.00 0.00 2 886.4
20240423082304 -17 260 0.0 0.0 0.00 0.00 0.00 2 886.4
20240423081804 -17 260 0.0 0.0 0.00 0.00 0.00 2 886.4
20240423080804 -17 260 0.0 0.0 0.00 0.00 0.00 2 886.4
20240423080303 -17 260 0.0 3.2 0.00 0.00 0.00 2 886.4
20240423075303 -17 281 0.0 0.0 0.00 0.00 0.00 2 886.4
20240423074803 -17 281 0.0 0.0 0.00 0.00 0.00 2 886.4
20240423074302 -17 281 0.0 0.0 0.00 0.00 0.00 2 886.4
20240423073803 -17 281 0.0 1.6 0.00 0.00 0.00 2 886.4
20240423072304 -17 127 0.0 0.0 0.00 0.00 0.00 2 886.4
20240423071804 -17 127 0.0 0.0 0.00 0.00 0.00 2 886.4
20240423071304 -17 127 0.0 0.0 0.00 0.00 0.00 2 886.4
20240423070803 -17 127 0.0 0.0 0.00 0.00 0.00 2 886.4
20240423070303 -17 127 0.0 0.0 0.00 0.00 0.00 2 886.4
20240423065804 -17 127 0.0 0.0 0.00 0.00 0.00 2 886.4
20240423065303 -17 127 0.0 0.0 0.00 0.00 0.00 2 886.4
20240423064803 -17 127 0.0 0.0 0.00 0.00 0.00 2 886.4
20240423064303 -17 127 0.0 0.0 0.00 0.00 0.00 2 886.4
20240423063303 -17 127 0.0 0.0 0.00 0.00 0.00 2 886.4
20240423062803 -17 127 0.0 0.0 0.00 0.00 0.00 2 886.4
20240423062304 -17 127 0.0 0.0 0.00 0.00 0.00 2 886.4
20240423060804 -17 127 0.0 0.0 0.00 0.00 0.00 2 886.4
20240423060303 -17 127 0.0 0.0 0.00 0.00 0.00 2 886.4
20240423055303 -17 127 0.0 0.0 0.00 0.00 0.00 2 886.4
20240423054803 -17 127 0.0 0.0 0.00 0.00 0.00 2 886.4
20240423053804 -17 127 0.0 0.0 0.00 0.00 0.00 2 886.4
20240423053304 -17 127 0.0 0.0 0.00 0.00 0.00 2 886.4
20240423052803 -17 127 0.0 0.0 0.00 0.00 0.00 2 886.4
20240423051803 -17 127 0.0 0.0 0.00 0.00 0.00 2 886.4
20240423050804 -17 127 0.0 0.0 0.00 0.00 0.00 2 886.4
20240423045802 -17 127 0.0 0.0 0.00 0.00 0.00 2 886.4
20240423044803 -17 127 0.0 0.0 0.00 0.00 0.00 2 886.4
20240423044304 -17 127 0.0 0.0 0.00 0.00 0.00 2 886.4
20240423043803 -17 127 0.0 0.0 0.00 0.00 0.00 2 886.4
20240423043304 -17 127 0.0 0.0 0.00 0.00 0.00 2 886.4
20240423042303 -17 127 0.0 0.0 0.00 0.00 0.00 2 886.4
20240423041804 -17 127 0.0 0.0 0.00 0.00 0.00 2 886.4
20240423041304 -17 127 0.0 0.0 0.00 0.00 0.00 2 886.4
20240423040803 -17 127 0.0 0.0 0.00 0.00 0.00 2 886.4
20240423040304 -17 127 0.0 0.0 0.00 0.00 0.00 2 886.4
20240423035304 -17 127 0.0 0.0 0.00 0.00 0.00 2 886.4
20240423034804 -17 127 0.0 0.0 0.00 0.00 0.00 2 886.4
20240423034303 -17 127 0.0 0.0 0.00 0.00 0.00 2 886.4
20240423033304 -17 127 0.0 0.0 0.00 0.00 0.00 2 886.4
20240423032303 -17 127 0.0 0.0 0.00 0.00 0.00 2 886.4
20240423030805 -17 127 0.0 0.0 0.00 0.00 0.00 2 886.4
20240423030303 -17 127 0.0 0.0 0.00 0.00 0.00 2 886.4
20240423025803 -17 127 0.0 0.0 0.00 0.00 0.00 2 886.4
20240423025303 -17 127 0.0 0.0 0.00 0.00 0.00 2 886.4
20240423024803 -17 127 0.0 0.0 0.00 0.00 0.00 2 886.4
20240423024303 -17 127 0.0 0.0 0.00 0.00 0.00 2 886.4
20240423023803 -17 127 0.0 0.0 0.00 0.00 0.00 2 886.4
20240423023303 -17 127 0.0 0.0 0.00 0.00 0.00 2 886.4
20240423022304 -17 127 0.0 0.0 0.00 0.00 0.00 2 886.4
20240423021303 -17 127 0.0 0.0 0.00 0.00 0.00 2 886.4
20240423020803 -17 127 0.0 0.0 0.00 0.00 0.00 2 886.4
20240423014803 -17 127 0.0 0.0 0.00 0.00 0.00 2 886.4
20240423014303 -17 127 0.0 0.0 0.00 0.00 0.00 2 886.4
20240423013804 -17 127 0.0 0.0 0.00 0.00 0.00 2 886.4
20240423012303 -17 127 0.0 0.0 0.00 0.00 0.00 2 886.4
20240423011804 -17 127 0.0 0.0 0.00 0.00 0.00 2 886.4
20240423011303 -17 127 0.0 0.0 0.00 0.00 0.00 2 886.4
20240423010803 -17 127 0.0 0.0 0.00 0.00 0.00 2 886.4
20240423005803 -17 127 0.0 0.0 0.00 0.00 0.00 2 886.4